www.pogodaiklimat.ru

Погода и климат >> Архив погоды >> Россия >> Архангельская область >> Кепино


ПОГОДА в Кепино

  • Прогноз погоды в Кепино
  • Монитор погоды в Кепино
  • Климат города

АРХИВ ПОГОДЫ в Кепино

Время (UTC), дата Ветер
(напр.,м/с)
 
Видим.   Явления Облачность Т
(С)
Тd
(С)
f
(%)
Тe
(С)
Тes
(С)
Комфортность P
(гПа)
Po
(гПа)
Тmin
(С)
Tmax
(С)
R
(мм)
R24
(мм)
S
(см)
06 13.09 В 1 4000 м слабая морось {ливн. осадки} 10/10 300 м
[St]
+7.8 +7.4 97 +7 +7 1002.6 994.1
09 13.09 В 2 4000 м дымка {морось} 10/10 300 м
[St]
+9.5 +8.7 95 +8 +8 1002.3 993.9
12 13.09 В 2 4000 м дымка {морось} 10/10 300 м
[St]
+9.7 +9.0 95 +8 +8 1002.2 993.8
15 13.09 В 1 4000 м слабый дождь 10/10 300 м
[Frnb Ns]
+9.5 +8.9 96 +9 +9 1001.3 992.9 +9.9 1
18 13.09 В 1 4000 м слабый дождь 10/10 300 м
[Frnb Ns]
+9.0 +8.5 97 +8 +8 999.3 990.9
21 13.09 В 1 4000 м слабый дождь 10/10 300 м
[Frnb Ns]
+8.8 +8.4 97 +8 +8 996.8 988.4
00 14.09 В 2 2000 м в посл. час ливневой дождь 10/10 300 м
[Cb cap]
+9.0 +8.6 97 +7 +7 994.2 985.8
06 14.09 В 2 2000 м дымка {ливн. осадки} 10/10 300 м
[St]
+10.7 +10.3 97 +9 +9 990.0 981.8
09 14.09 В 2 2000 м дымка 10/10 300 м
[St]
+11.2 +10.7 97 +10 +10 988.7 980.4
12 14.09 В 2 2000 м в посл. час ливневой дождь 10/10 300 м
[St]
+11.9 +11.5 97 +11 +11 987.3 979.1
15 14.09 штиль 0 10 км слабый ливневой дождь 10/10 600 м
[Cb cap]
+12.1 +11.7 97 +11 +11 986.3 978.1 +12.2 13
18 14.09 З 2 4000 м дымка {ливн. осадки} 10/10 300 м
[St]
+9.3 +8.8 97 +7 +7 987.8 979.5
21 14.09 штиль 0 4000 м дымка 10/10 300 м
[St]
+8.2 +7.6 96 +7 +7 989.1 980.8
00 15.09 З 2 4000 м слабый ливневой дождь 10/10 300 м
[Cb cap]
+8.5 +8.1 97 +6 +6 990.3 982.0
03 15.09 Ю 1 4000 м слабый ливневой дождь 10/10 300 м
[Cb cap]
+8.3 +7.9 97 +7 +7 991.1 982.8 +8.0 2
06 15.09 Ю 1 4000 м дымка {ливн. осадки} 10/8 600 м
[Sc Ac trans]
+9.5 +9.1 97 +9 +9 992.3 984.0
09 15.09 ЮВ 1 10 км слабый ливневой дождь 10/6 300 м
[Cb cap Ac trans]
+11.3 +10.5 95 +11 +12 993.3 985.0
12 15.09 ЮВ 2 10 км {ливн. осадки} 10/8 600 м
[Sc Ac und]
+12.6 +11.1 91 +12 +12 993.8 985.5
15 15.09 ЮВ 1 10 км {ливн. осадки} 9/8 600 м
[Sc Ac trans]
+12.1 +11.2 94 +12 +12 994.0 985.7 +13.3 2
18 15.09 ЮВ 1 10 км {ливн. осадки} 8/8 600 м
[Sc]
+11.1 +10.5 96 +11 +11 993.5 985.2
21 15.09 штиль 0 4000 м дымка 8/8 600 м
[Sc]
+9.6 +9.2 97 +9 +9 991.9 983.6
00 16.09 СВ 1 4000 м дымка 10/10 600 м
[Sc]
+10.0 +9.6 97 +9 +9 991.0 982.7
03 16.09 СВ 1 4000 м дымка 10/10 300 м
[St]
+9.8 +9.5 98 +9 +9 990.0 981.7 +9.4
06 16.09 С 1 4000 м слабый ливневой дождь 10/10 300 м
[Cb cap]
+10.3 +10.0 98 +10 +10 991.1 982.8
09 16.09 С 2 4000 м дымка {ливн. осадки} 10/10 600 м
[Sc]
+9.4 +8.9 97 +8 +8 994.3 985.9
12 16.09 С 3 4000 м дымка {ливн. осадки} 10/10 300 м
[St]
+7.8 +6.8 93 +5 +5 997.8 989.3
15 16.09 СЗ 2 10 км 10/10 600 м
[Sc]
+6.3 +5.0 91 +4 +4 1000.6 992.1 +10.3 1
18 16.09 СЗ 2 4000 м дымка 10/10 300 м
[St]
+6.0 +5.3 95 +3 +3 1002.8 994.3
21 16.09 С 2 4000 м дымка 10/10 300 м
[St]
+5.2 +4.5 95 +2 +2 1005.0 996.4
00 17.09 СЗ 2 4000 м дымка 10/10 300 м
[St]
+3.9 +2.8 93 +1 +1 1007.2 998.6
03 17.09 З 2 4000 м дымка {ливн. осадки} 10/10 300 м
[St]
+3.6 +2.3 91 +1 +1 1008.6 999.9 +3.6 1
06 17.09 СЗ 3 10 км {ливн. осадки} 10/10 600 м
[Sc]
+4.7 +2.1 83 +1 +1 1010.4 1001.7
09 17.09 СЗ 3 10 км 9/9 600 м
[Sc]
+6.7 +2.0 72 +4 +4 1012.1 1003.5
12 17.09 З 2 10 км 8/6 600 м
[Sc Ci fib]
+7.4 +1.4 66 +6 +6 1013.4 1004.8
15 17.09 З 2 10 км 10/8 600 м
[Sc Ci fib]
+6.1 +2.2 76 +4 +4 1014.3 1005.7 +7.7
18 17.09 штиль 0 20 км 6/0
[Ci fib]
+0.6 +0.1 96 -1 -1 1014.5 1005.7
21 17.09 штиль 0 10 км 6/3 600 м
[Sc Ci fib]
+1.1 +0.7 97 -0 -0 1014.7 1005.9
03 18.09 ЮВ 1 10 км слабый дождь 10/0 600 м
[As op]
+2.7 +2.3 97 +1 +1 1013.0 1004.3 +0.3 0.8
06 18.09 ЮВ 2 4000 м слабый дождь 10/10 300 м
[Frnb Ns]
+3.6 +2.9 95 +1 +1 1012.1 1003.4
09 18.09 ЮВ 1 4000 м слабый дождь 10/10 300 м
[Frnb Ns]
+5.3 +4.7 96 +4 +4 1012.2 1003.6
12 18.09 ЮВ 2 10 км слабый дождь 10/10 300 м
[Frnb Ns]
+7.2 +6.6 96 +5 +5 1012.5 1003.9
15 18.09 ЮВ 1 10 км {дождь} 10/10 300 м
[St]
+6.6 +6.0 96 +5 +5 1012.9 1004.3 +7.4 10
18 18.09 В 2 10 км {дождь} 10/10 600 м
[Sc]
+5.9 +4.7 92 +3 +3 1013.8 1005.1
21 18.09 В 1 10 км 3/0
[Ac trans]
+2.8 +2.1 95 +1 +1 1014.6 1005.9
00 19.09 В 1 10 км 6/0
[Ac trans]
+0.5 +0.2 98 -2 -2 1015.2 1006.4
03 19.09 В 1 10 км 9/0
[Ci fib]
+1.6 +0.9 95 -0 -0 1014.7 1005.9 +0.3
06 19.09 В 2 10 км 10/0
[Ac und]
+4.6 +2.0 83 +2 +2 1014.4 1005.7
09 19.09 В 3
{11}
10 км 10/10 600 м
[Sc]
+6.8 +2.1 72 +4 +4 1013.0 1004.4
12 19.09 В 3
{13}
10 км 10/10 600 м
[Sc]
+6.3 +2.2 75 +3 +3 1012.7 1004.1
15 19.09 В 2
{10}
10 км 10/10 600 м
[Sc]
+6.2 +1.6 72 +4 +4 1013.6 1005.0 +7.2
18 19.09 СВ 1 10 км 10/10 600 м
[Sc]
+4.7 +1.4 79 +4 +4 1014.9 1006.2
21 19.09 СВ 1 10 км {ливн. осадки} 10/10 600 м
[Sc]
+4.1 +1.8 85 +3 +3 1015.8 1007.1
00 20.09 СВ 1 10 км {ливн. осадки} 10/10 600 м
[Sc]
+3.9 +2.0 87 +2 +2 1017.4 1008.6
03 20.09 СВ 1 10 км 10/10 600 м
[Sc]
+3.6 +2.2 91 +2 +2 1019.5 1010.7 +3.2 0.0

 

Местоположение метеостанции Кепино (Архангельская область, Россия): широта 65.38 долгота 41.83 высота над уровнем моря 69 м.

В архиве по умолчанию представлена погода в Кепино за последнюю неделю. Архивные данные за месяц целиком и за предыдущие месяцы, начиная с января 2011 года, Вы можете получить, выбрав интересующий диапазон дат из раскрывающегося списка и нажав кнопку "Ввод!".

Внимание! Время в таблицах - всемирное. Для получения местного времени необходимо прибавить поправку, которая в Кепино равна 3 ч.

Смотрите также архив погоды в соседних городах и на ближайших метеорологических станциях:

Погода на Мудьюге Острове (Архангельская область, Россия) (93 км)
Погода в Зимнегорском Маяке (Архангельская область, Россия) (98 км)
Погода в Пинеге (Архангельская область, Россия) (104 км)
Погода в Архангельске (Архангельская область, Россия) (111 км)
Погода в Мезене (Архангельская область, Россия) (122 км)
Погода в Абрамовском маяке (Архангельская область, Россия) (129 км)
Погода в Холмогорах (Архангельская область, Россия) (129 км)
Погода в Северодвинске (Архангельская область, Россия) (131 км)
Погода на Сосновец Острове (Мурманская область, Россия) (133 км)
Погода в Пялице (Мурманская область, Россия) (138 км)

Пояснения к столбцам:

Ветер - указаны скорость ветра в м/с - средняя за 10 мин, порывы в срок и между сроками (в фигурных скобках) и направление, откуда дует ветер: С - северный, СВ - северо-восточный, В - восточный, ЮВ - юго-восточный, Ю - южный, ЮЗ - юго-западный, З - западный, СЗ - северо-западный.
Видимость - горизонтальная дальность видимости в метрах или километрах. При видимости от 1 до 10 км при отсутствии осадков обычно наблюдается дымка, при ухудшении видимости до 1 км и менее - туман. В сухую погоду видимость может ухудшаться дымом, пылью или мглою.
Явления - указаны атмосферные явления, наблюдавшиеся в срок или в последний час перед сроком; фигурными скобками обозначены явления, наблюдавшиеся между сроками (за 1-3 часа до срока); квадратными скобками обозначены град или гололедные отложения с указанием их диаметра в мм.
Облачность - указаны через наклонную черту общая и нижняя облачность в баллах и высота нижней границы облаков в метрах; квадратными скобками обозначены формы облаков: Ci - перистые, Cs - перисто-слоистые, Cc - перисто-кучевые, Ac - высококучевые, As - высокослоистые, Sc - слоисто-кучевые, Ns - слоисто-дождевые, Cu - кучевые, Cb - кучево-дождевые. Подробнее классификацию облаков см. в Атласе облаков (PDF).
T - Температура воздуха - температура, измеренная на высоте 2 м над землей.
Td - Температура точки росы - температура, при понижении до которой содержащийся в воздухе водяной пар достигнет насыщения.
f - Относительная влажность воздуха - влажноcть воздуха, измеренная на высоте 2 м над землей.
Te - Эффективная температура - температура, которую ощущает одетый по сезону человек в тени. Характеристика душности погоды. При расчете учитывается влияние влажности воздуха и скорости ветра на теплоощущения человека.
Tes - Эффективная температура на солнце - температура, которую ощущает человек, с поправкой на солнечный нагрев. Характеристика знойности погоды. Зависит от высоты солнца над горизонтом, облачности и скорости ветра. Ночью, в пасмурную погоду, а также при ветре 12 м/с и более поправка равна нулю.
P - Атмосферное давление - приведенное к уровню моря атмосферное давление.
Po - Атмосферное давление - измеренное на уровне метеостанции атмосферное давление.
Tmin - Минимальная температура - минимум температуры воздуха на высоте 2 м над землей.
Tmax - Максимальная температура - максимум температуры воздуха на высоте 2 м над землей.
R - Количество осадков - Количество выпавших осадков за период времени, мм. При наведении курсора мыши на число - период времени, за который выпало указанное количество осадков.
R24 - Количество осадков - Количество выпавших осадков за 24 часа, мм.
S - Снежный покров - Высота снежного покрова, см. При наведении курсора мыши на число - состояние снежного покрова и степень покрытия местности в баллах.